When you browse on this site, cookies collect data to enhance your experience and personalize the content and advertising you see.
Visit our Privacy Policy to learn more. By continuing to use the site, you agree to this use of cookies and data.
  • In Portugal
  • List of Countries
  • For 7 days
  • Water Temperature
  • Weather Map
  • Weather Widgets
  • user-avatar
    Login

    Hourly Weather Jalapa

    Today, 24 February, Monday

    Time Temperature Precipitation Wind Pressure Humidity
    00:00 +14°C° 0 mm 1 mps 642 mmHg 96%
    01:00 +14°C° 0 mm 1 mps 641 mmHg 94%
    02:00 +14°C° 0 mm 1 mps 641 mmHg 91%
    03:00 +14°C° 0 mm 1 mps 640 mmHg 89%
    04:00 +14°C° 0 mm 1 mps 641 mmHg 88%
    05:00 +13°C° 0 mm 0 mps 641 mmHg 87%
    06:00 +12°C° 0 mm 0 mps 641 mmHg 87%
    07:00 +15°C° 0 mm 0 mps 642 mmHg 75%
    08:00 +20°C° 0 mm 1 mps 644 mmHg 64%
    09:00 +23°C° 0 mm 1 mps 645 mmHg 53%
    10:00 +26°C° 0 mm 1 mps 645 mmHg 46%
    11:00 +28°C° 0 mm 1 mps 645 mmHg 40%
    12:00 +30°C° 0 mm 2 mps 645 mmHg 33%
    13:00 +30°C° 0 mm 2 mps 644 mmHg 34%
    14:00 +30°C° 0 mm 2 mps 644 mmHg 35%
    15:00 +30°C° 0 mm 3 mps 643 mmHg 35%
    16:00 +27°C° 0 mm 2 mps 642 mmHg 47%
    17:00 +25°C° 0 mm 2 mps 641 mmHg 59%
    18:00 +21°C° 0 mm 2 mps 641 mmHg 71%
    19:00 +20°C° 0 mm 2 mps 641 mmHg 78%
    20:00 +19°C° 0 mm 2 mps 641 mmHg 84%
    21:00 +19°C° 0 mm 1 mps 641 mmHg 91%
    22:00 +18°C° 0 mm 1 mps 641 mmHg 92%
    23:00 +18°C° 0 mm 1 mps 641 mmHg 93%

    Tomorrow, 25 February, Tuesday

    Time Temperature Precipitation Wind Pressure Humidity
    00:00 +16°C° 0 mm 1 mps 641 mmHg 94%
    01:00 +16°C° 0 mm 1 mps 640 mmHg 93%
    02:00 +16°C° 0 mm 1 mps 640 mmHg 91%
    03:00 +15°C° 0 mm 1 mps 639 mmHg 90%
    04:00 +15°C° 0 mm 1 mps 640 mmHg 90%
    05:00 +15°C° 0 mm 1 mps 640 mmHg 91%
    06:00 +15°C° 0 mm 1 mps 640 mmHg 91%
    07:00 +18°C° 0 mm 1 mps 641 mmHg 79%
    08:00 +21°C° 0 mm 1 mps 642 mmHg 68%
    09:00 +23°C° 0 mm 1 mps 644 mmHg 57%
    10:00 +25°C° 0 mm 1 mps 644 mmHg 49%
    11:00 +27°C° 0 mm 2 mps 644 mmHg 42%
    12:00 +29°C° 0 mm 2 mps 644 mmHg 35%
    13:00 +29°C° 0 mm 2 mps 644 mmHg 35%
    14:00 +29°C° 0 mm 3 mps 643 mmHg 34%
    15:00 +29°C° 0 mm 3 mps 642 mmHg 34%
    16:00 +27°C° 0 mm 3 mps 642 mmHg 42%
    17:00 +25°C° 0 mm 2 mps 641 mmHg 50%
    18:00 +23°C° 0 mm 2 mps 641 mmHg 58%
    19:00 +20°C° 0 mm 2 mps 641 mmHg 66%
    20:00 +19°C° 0 mm 2 mps 641 mmHg 75%
    21:00 +18°C° 0 mm 1 mps 641 mmHg 83%
    22:00 +18°C° 0 mm 1 mps 641 mmHg 84%
    23:00 +16°C° 0 mm 1 mps 641 mmHg 85%

    Day after tomorrow, 26 February, Wednesday

    Time Temperature Precipitation Wind Pressure Humidity
    00:00 +15°C° 0 mm 0 mps 641 mmHg 87%
    01:00 +15°C° 0 mm 0 mps 640 mmHg 87%
    02:00 +14°C° 0 mm 0 mps 640 mmHg 88%
    03:00 +14°C° 0 mm 0 mps 640 mmHg 89%
    04:00 +14°C° 0 mm 0 mps 640 mmHg 88%
    05:00 +13°C° 0 mm 0 mps 640 mmHg 87%
    06:00 +13°C° 0 mm 0 mps 640 mmHg 86%
    07:00 +16°C° 0 mm 0 mps 642 mmHg 74%
    08:00 +22°C° 0 mm 1 mps 643 mmHg 61%
    09:00 +25°C° 0 mm 1 mps 645 mmHg 49%
    10:00 +27°C° 0 mm 1 mps 645 mmHg 43%
    11:00 +28°C° 0 mm 1 mps 645 mmHg 38%
    12:00 +30°C° 0 mm 2 mps 646 mmHg 32%
    13:00 +30°C° 0 mm 2 mps 645 mmHg 32%
    14:00 +29°C° 0 mm 2 mps 644 mmHg 33%
    15:00 +29°C° 0 mm 1 mps 643 mmHg 33%
    16:00 +27°C° 0 mm 1 mps 643 mmHg 41%
    17:00 +25°C° 0 mm 1 mps 643 mmHg 49%
    18:00 +23°C° 0 mm 1 mps 642 mmHg 57%
    19:00 +22°C° 0 mm 1 mps 643 mmHg 65%
    20:00 +20°C° 0 mm 1 mps 643 mmHg 73%
    21:00 +19°C° 0 mm 1 mps 643 mmHg 80%
    22:00 +18°C° 0 mm 1 mps 643 mmHg 83%
    23:00 +18°C° 0 mm 1 mps 643 mmHg 86%

    27 February, Thursday

    Time Temperature Precipitation Wind Pressure Humidity
    00:00 +18°C° 0 mm 1 mps 643 mmHg 89%
    01:00 +16°C° 0 mm 1 mps 642 mmHg 91%
    02:00 +16°C° 0 mm 1 mps 642 mmHg 93%
    03:00 +15°C° 0 mm 1 mps 642 mmHg 95%
    04:00 +15°C° 0 mm 1 mps 642 mmHg 96%
    05:00 +15°C° 0 mm 1 mps 642 mmHg 96%
    06:00 +15°C° 0 mm 1 mps 642 mmHg 97%
    07:00 +17°C° 0 mm 2 mps 643 mmHg 89%
    08:00 +18°C° 0 mm 2 mps 644 mmHg 81%
    09:00 +20°C° 0 mm 2 mps 645 mmHg 73%
    10:00 +21°C° 0 mm 3 mps 645 mmHg 65%
    11:00 +24°C° 0 mm 3 mps 646 mmHg 58%
    12:00 +26°C° 0 mm 3 mps 646 mmHg 50%
    13:00 +26°C° 0 mm 3 mps 646 mmHg 49%
    14:00 +26°C° 0 mm 3 mps 645 mmHg 49%
    15:00 +26°C° 0 mm 4 mps 645 mmHg 48%
    16:00 +24°C° 0.1 mm 3 mps 645 mmHg 56%
    17:00 +21°C° 0.1 mm 3 mps 644 mmHg 64%
    18:00 +19°C° 0.1 mm 3 mps 644 mmHg 72%
    19:00 +18°C° 0 mm 3 mps 644 mmHg 79%
    20:00 +16°C° 0 mm 2 mps 644 mmHg 86%
    21:00 +15°C° 0 mm 2 mps 644 mmHg 93%
    22:00 +15°C° 0 mm 2 mps 644 mmHg 92%
    23:00 +15°C° 0 mm 2 mps 644 mmHg 92%

    28 February, Friday

    Time Temperature Precipitation Wind Pressure Humidity
    00:00 +14°C° 0 mm 2 mps 644 mmHg 92%
    01:00 +14°C° 0 mm 2 mps 643 mmHg 91%
    02:00 +14°C° 0 mm 2 mps 643 mmHg 90%
    03:00 +14°C° 0 mm 2 mps 643 mmHg 90%
    04:00 +14°C° 0 mm 2 mps 643 mmHg 90%
    05:00 +14°C° 0 mm 2 mps 643 mmHg 91%
    06:00 +14°C° 0 mm 2 mps 643 mmHg 92%
    07:00 +15°C° 0 mm 2 mps 644 mmHg 84%
    08:00 +17°C° 0 mm 3 mps 645 mmHg 76%
    09:00 +19°C° 0 mm 3 mps 646 mmHg 68%
    10:00 +20°C° 0 mm 3 mps 646 mmHg 64%
    11:00 +21°C° 0 mm 3 mps 646 mmHg 60%
    12:00 +22°C° 0 mm 3 mps 646 mmHg 57%
    13:00 +21°C° 0 mm 3 mps 646 mmHg 58%
    14:00 +21°C° 0 mm 3 mps 645 mmHg 60%
    15:00 +21°C° 0 mm 3 mps 645 mmHg 62%
    16:00 +19°C° 0 mm 3 mps 644 mmHg 68%
    17:00 +18°C° 0 mm 3 mps 644 mmHg 74%
    18:00 +16°C° 0 mm 2 mps 644 mmHg 81%
    19:00 +15°C° 0 mm 2 mps 644 mmHg 84%
    20:00 +15°C° 0 mm 2 mps 644 mmHg 88%
    21:00 +13°C° 0 mm 3 mps 644 mmHg 91%
    22:00 +14°C° 0 mm 2 mps 644 mmHg 91%
    23:00 +14°C° 0 mm 2 mps 644 mmHg 90%

    29 February, Saturday

    Time Temperature Precipitation Wind Pressure Humidity
    00:00 +14°C° 0 mm 2 mps 644 mmHg 90%
    01:00 +14°C° 0 mm 2 mps 644 mmHg 90%
    02:00 +14°C° 0 mm 2 mps 643 mmHg 90%
    03:00 +13°C° 0 mm 2 mps 643 mmHg 90%
    04:00 +13°C° 0 mm 2 mps 643 mmHg 90%
    05:00 +13°C° 0 mm 2 mps 643 mmHg 91%
    06:00 +13°C° 0 mm 2 mps 643 mmHg 91%
    07:00 +15°C° 0 mm 2 mps 644 mmHg 83%
    08:00 +16°C° 0 mm 3 mps 645 mmHg 75%
    09:00 +18°C° 0 mm 3 mps 646 mmHg 67%
    10:00 +20°C° 0 mm 3 mps 647 mmHg 61%
    11:00 +21°C° 0 mm 3 mps 647 mmHg 55%
    12:00 +23°C° 0 mm 4 mps 647 mmHg 49%
    13:00 +23°C° 0 mm 4 mps 646 mmHg 49%
    14:00 +23°C° 0 mm 4 mps 646 mmHg 50%
    15:00 +23°C° 0 mm 4 mps 645 mmHg 50%
    16:00 +20°C° 0 mm 3 mps 645 mmHg 59%
    17:00 +18°C° 0 mm 3 mps 644 mmHg 68%
    18:00 +16°C° 0 mm 3 mps 644 mmHg 77%
    19:00 +15°C° 0 mm 2 mps 644 mmHg 83%
    20:00 +14°C° 0 mm 2 mps 644 mmHg 88%
    21:00 +13°C° 0 mm 2 mps 644 mmHg 93%
    22:00 +13°C° 0 mm 2 mps 644 mmHg 93%
    23:00 +13°C° 0 mm 2 mps 644 mmHg 93%
    Show more